Regional Weather Roundup
Issued by NWS Newport/Morehead, NC

Home | Current Version | Previous Version | Text Only | Print | Product List | Glossary On
Versions: 1 2 3 4 5 6 7 8 9 10 11 12 13 14 15 16 17 18 19 20 21 22 23 24 25 26 27 28 29 30 31 32 33 34 35 36 37 38 39 40 41 42 43 44 45 46 47 48 49 50
000
ASUS42 KMHX 040025
RWRMHX
WEATHER ROUNDUP FOR EASTERN NORTH CAROLINA
NATIONAL WEATHER SERVICE NEWPORT/MOREHEAD CITY NC
800 PM EDT TUE MAY 03 2016

NOTE: "FAIR" INDICATES FEW OR NO CLOUDS BELOW 12,000 FEET
WITH NO SIGNIFICANT WEATHER AND/OR OBSTRUCTIONS TO VISIBILITY

NCZ015>017-031-032-045>047-102-103-040100-
NORTH COAST

CITY           SKY/WX    TMP DP  RH WIND       PRES   REMARKS
EDENTON        CLOUDY    72  68  88 S6        29.75S
ELIZABETH CITY CLEAR     70  64  81 S8        29.74F
KITTY HAWK     CLEAR     69  64  84 S6        29.74S
MANTEO         NOT AVBL

$$

NCZ045>047-081-094-103-104-040100-
CENTRAL COAST

CITY           SKY/WX    TMP DP  RH WIND       PRES   REMARKS
FRISCO         CLEAR     69  66  90 SW10      29.77F
SWANQUARTER    NOT AVBL

$$

NCZ095-097-098-100-101-040100-
SOUTHERN COAST

CITY           SKY/WX    TMP DP  RH WIND       PRES   REMARKS
BEAUFORT       CLOUDY    70  68  93 S7        29.77S
CEDAR ISLAND   NOT AVBL
JACKSONVILLE   CLOUDY    70  66  87 S6        29.76S
PINEY ISLAND   NOT AVBL
WILMINGTON     CLOUDY    70  67  90 S13       29.76F


$$

NCZ011>013-027>030-043-044-078>080-089-090>093-098-040100-
COASTAL PLAIN

CITY           SKY/WX    TMP DP  RH WIND       PRES   REMARKS
AHOSKIE        CLOUDY    70  66  89 CALM      29.72F
CLINTON        DRIZZLE   72  69  90 S3        29.73F
ELIZABETHTOWN  PTCLDY    69  64  84 S8        29.75S
GOLDSBORO      MOCLDY    73  73 100 N12       29.71S
GREENVILLE     CLOUDY    73  68  83 SW5       29.79R HAZE
HAVELOCK       CLOUDY    69  67  93 S5        29.77F
KENANSVILLE    MOCLDY    72  69  90 S3        29.75F
KINSTON        CLOUDY    73  68  83 S13       29.74S
NEW BERN       CLOUDY    69  65  86 S6        29.77S
RICHLANDS      CLOUDY    71  67  87 S8        29.76S
ROCKY MOUNT    CLOUDY    65  62  90 S6        29.74R
WASHINGTON     CLOUDY    71  67  85 S6        29.75R
WHITEVILLE     NOT AVBL

$$

AMZ130-135-150-152-154-156-158-170-250-252-270-ANZ085-086-088-633-658-670-040100-
MARINE OBSERVATIONS

STATION/POSITION TIME  TEMP    WIND        PRES    WAVE   SWELL
                       AIR SEA DIR/SP/G            HT/PER HT/PER
                 (UTC) (F)     (DEG/KT/KT) (MB)    (FT/S) (FT/S)
CHESAPEAKE LIGHT 0000   63     170/ 16/ 17 1007.1
64 E VA BEACH    2350   58 54  190/  6/  8 1007.3    4/ 7   3/ 7
DUCK             NOT AVBL
2 E DUCK         2311      59                N/A     2/ 9
OREGON INLET     0000      72              1007.7
13E OREGON INLT  2300      62                N/A     4/ 7   2/ 7
HATTERAS CG      0000      69              1007.9
DIAMOND BUOY     2350   73 72  200/ 19/ 21 1007.9    5/ 4   2/ 7
CAPE LOOKOUT     0000   70     200/ 10/ 13 1007.5
BEAUFORT LAB     0000      67              1007.3
30 SE NEW RVR IN 2325      71                N/A     6/ 7
27 SE WRIGHTSVLE 0008   73 73  210/ 10/ 16   N/A
5 SE WRIGHTSVLE  0008   70 70  230/ 19/ 29 1008.5
225 S CAPE HAT   2350   69 74   40/  4/  6 1012.7    4/ 6   3/ 6
41 SE CHARLESTON 2350   75 75  210/ 16/ 17 1008.0    4/ 8   3/ 8

$$




USA.gov is the U.S. government's official web portal to all federal, state and local government web resources and services.